sat.trackr.live / text

‹ back to catalog

STARLINK-34478

NORAD 64435 · 2025-129Z

PAYLOAD ACTIVE UNKNOWN

§ Identity

Operator
Country
US
Launch date
2025-06-17
Launch site
AFWTR
Launch vehicle
Mass (kg)
RCS (m²)

Purposes: comms

External: N2YO · Heavens-Above · Gunter

§ Orbital elements

Epoch: 2026-09-20T16:00:01.999584Z

Period
94.09 min
Inclination
70.0003°
Eccentricity
0.0003518
Mean motion
15.30444513 rev/d
Perigee alt
472.1 km
Apogee alt
476.9 km
Semi-major
6,852.6 km
B*
-1.0120e-3
RAAN
300.5610°
Arg perigee
276.4475°
Mean anomaly
323.7062°
Rev number
579

§ Raw data

STARLINK-344781 64435U 25129Z   26263.66668981 -.00029887  00000+0 -10120-2 0  99912 64435  70.0003 300.5610 0003518 276.4475 323.7062 15.30444513  5795

JSON: /api/v1/satellites/64435 · /tle

For live sub-satellite position, see the globe view (requires WebGL).

§ Visibility from observer

Set your observer location to see the next 7 days of passes ≥ 10°. The values pass through the URL so the page stays shareable.

No JS? Fill the form by hand. The geolocation button needs JavaScript.